UAL430 KLAX-KSAN

Flight info

Callsign UAL430
Flight time 0h 27m
Altitude 13000
Route LAXX1 MZB
Aircraft B738/M-G/C

Departure

Time 2026-05-08 02:02
Airport Los Angeles International Airport (KLAX)

Arrival

Time 2026-05-08 02:30
Airport San Diego International Airport (KSAN)
Time Latitude Longitude Altitude Speed Heading
2026-05-08 01:57 33.93966 -118.39209 108 ft 17 kts 86°
2026-05-08 01:57 33.93975 -118.39067 106 ft 16 kts 84°
2026-05-08 01:58 33.93988 -118.38926 105 ft 15 kts 84°
2026-05-08 01:58 33.94002 -118.38799 105 ft 15 kts 83°
2026-05-08 01:58 33.94015 -118.38670 105 ft 16 kts 83°
2026-05-08 01:58 33.94030 -118.38517 105 ft 20 kts 84°
2026-05-08 01:59 33.94055 -118.38328 102 ft 25 kts 82°
2026-05-08 01:59 33.94073 -118.38140 102 ft 10 kts 85°
2026-05-08 01:59 33.94075 -118.38101 102 ft 0 kts 85°
2026-05-08 02:00 33.94075 -118.38100 102 ft 0 kts 85°
2026-05-08 02:00 33.94077 -118.38078 102 ft 4 kts 85°
2026-05-08 02:00 33.94077 -118.38070 102 ft 0 kts 85°
2026-05-08 02:01 33.94078 -118.38057 102 ft 5 kts 91°
2026-05-08 02:01 33.94033 -118.38004 102 ft 13 kts 174°
2026-05-08 02:01 33.93978 -118.38072 102 ft 11 kts 260°
2026-05-08 02:01 33.93964 -118.38172 102 ft 22 kts 260°
2026-05-08 02:02 33.93910 -118.38726 105 ft 108 kts 262°
2026-05-08 02:02 33.93792 -118.39899 157 ft 169 kts 262°
2026-05-08 02:02 33.93584 -118.41329 801 ft 186 kts 259°
2026-05-08 02:02 33.93373 -118.42882 1729 ft 194 kts 258°
2026-05-08 02:03 33.93014 -118.44391 2759 ft 186 kts 248°
2026-05-08 02:03 33.92283 -118.45615 3669 ft 183 kts 232°
2026-05-08 02:03 33.91448 -118.46727 4467 ft 182 kts 228°
2026-05-08 02:03 33.90337 -118.47491 5118 ft 195 kts 194°
2026-05-08 02:04 33.88921 -118.47430 5622 ft 216 kts 171°
2026-05-08 02:04 33.87398 -118.47060 6211 ft 232 kts 172°
2026-05-08 02:04 33.85737 -118.46678 6730 ft 250 kts 171°
2026-05-08 02:04 33.83960 -118.46291 7167 ft 273 kts 172°
2026-05-08 02:05 33.82013 -118.45885 7656 ft 292 kts 171°
2026-05-08 02:05 33.80016 -118.45482 8130 ft 294 kts 171°
2026-05-08 02:05 33.77989 -118.45097 8600 ft 295 kts 173°
2026-05-08 02:05 33.75969 -118.44573 9060 ft 299 kts 158°
2026-05-08 02:06 33.74221 -118.43262 9519 ft 299 kts 133°
2026-05-08 02:06 33.73074 -118.41244 10002 ft 295 kts 112°
2026-05-08 02:06 33.72275 -118.38971 10491 ft 298 kts 111°
2026-05-08 02:06 33.71460 -118.36673 10967 ft 299 kts 111°
2026-05-08 02:07 33.70625 -118.34378 11444 ft 300 kts 111°
2026-05-08 02:07 33.69791 -118.32104 11908 ft 304 kts 114°
2026-05-08 02:07 33.68523 -118.29974 12244 ft 326 kts 135°
2026-05-08 02:07 33.66748 -118.28148 12529 ft 344 kts 136°
2026-05-08 02:08 33.65044 -118.26067 12755 ft 361 kts 129°
2026-05-08 02:08 33.63434 -118.23713 12951 ft 371 kts 127°
2026-05-08 02:08 33.61806 -118.21267 12970 ft 370 kts 127°
2026-05-08 02:08 33.60226 -118.18903 12973 ft 367 kts 127°
2026-05-08 02:09 33.58618 -118.16483 12977 ft 367 kts 126°
2026-05-08 02:09 33.57036 -118.14079 12980 ft 367 kts 126°
2026-05-08 02:09 33.55481 -118.11697 12945 ft 367 kts 126°
2026-05-08 02:09 33.53896 -118.09266 12948 ft 366 kts 126°
2026-05-08 02:10 33.52340 -118.06883 12953 ft 367 kts 126°
2026-05-08 02:10 33.50758 -118.04466 12980 ft 367 kts 126°
2026-05-08 02:10 33.49187 -118.02063 12936 ft 368 kts 126°
2026-05-08 02:10 33.47619 -117.99663 12949 ft 368 kts 126°
2026-05-08 02:11 33.46034 -117.97237 12941 ft 367 kts 126°
2026-05-08 02:11 33.44454 -117.94822 12958 ft 367 kts 126°
2026-05-08 02:11 33.42900 -117.92451 12961 ft 367 kts 126°
2026-05-08 02:11 33.41311 -117.90027 12937 ft 366 kts 126°
2026-05-08 02:12 33.39740 -117.87629 12946 ft 367 kts 126°
2026-05-08 02:12 33.38180 -117.85249 12962 ft 367 kts 126°
2026-05-08 02:12 33.36601 -117.82835 12940 ft 367 kts 126°
2026-05-08 02:12 33.35001 -117.80496 12956 ft 368 kts 129°
2026-05-08 02:13 33.33270 -117.78267 12937 ft 359 kts 131°
2026-05-08 02:13 33.31580 -117.76122 12732 ft 346 kts 130°
2026-05-08 02:13 33.29984 -117.74041 12513 ft 335 kts 129°
2026-05-08 02:13 33.28431 -117.72006 12260 ft 331 kts 130°
2026-05-08 02:14 33.26872 -117.69971 12060 ft 330 kts 129°
2026-05-08 02:14 33.25336 -117.67966 11827 ft 331 kts 129°
2026-05-08 02:14 33.23786 -117.65943 11581 ft 330 kts 129°
2026-05-08 02:14 33.22226 -117.63905 11363 ft 329 kts 129°
2026-05-08 02:15 33.20684 -117.61893 11134 ft 328 kts 129°
2026-05-08 02:15 33.19155 -117.59898 10873 ft 327 kts 129°
2026-05-08 02:15 33.17612 -117.57883 10620 ft 327 kts 129°
2026-05-08 02:15 33.16096 -117.55902 10395 ft 327 kts 129°
2026-05-08 02:16 33.14542 -117.53878 10033 ft 328 kts 129°
2026-05-08 02:16 33.13016 -117.51895 9558 ft 322 kts 130°
2026-05-08 02:16 33.11525 -117.49966 9132 ft 310 kts 130°
2026-05-08 02:16 33.10097 -117.48114 8651 ft 302 kts 130°
2026-05-08 02:17 33.08681 -117.46265 8148 ft 296 kts 130°
2026-05-08 02:17 33.07320 -117.44489 7658 ft 291 kts 130°
2026-05-08 02:17 33.05960 -117.42722 7166 ft 287 kts 131°
2026-05-08 02:17 33.04621 -117.40985 6673 ft 283 kts 131°
2026-05-08 02:18 33.03300 -117.39269 6178 ft 281 kts 132°
2026-05-08 02:18 33.02010 -117.37595 5969 ft 266 kts 131°
2026-05-08 02:18 33.00804 -117.36032 5962 ft 247 kts 131°
2026-05-08 02:18 32.99651 -117.34538 5963 ft 243 kts 132°
2026-05-08 02:19 32.98474 -117.33010 5967 ft 255 kts 132°
2026-05-08 02:19 32.97235 -117.31406 5966 ft 271 kts 132°
2026-05-08 02:19 32.95927 -117.29715 5959 ft 282 kts 132°
2026-05-08 02:19 32.94586 -117.27982 5957 ft 285 kts 132°
2026-05-08 02:20 32.93247 -117.26251 5960 ft 288 kts 132°
2026-05-08 02:20 32.91877 -117.24482 5961 ft 288 kts 132°
2026-05-08 02:20 32.90528 -117.22741 5961 ft 287 kts 132°
2026-05-08 02:20 32.89182 -117.21003 5959 ft 282 kts 132°
2026-05-08 02:21 32.87860 -117.19297 5962 ft 282 kts 132°
2026-05-08 02:21 32.86523 -117.17573 5961 ft 281 kts 132°
2026-05-08 02:21 32.85208 -117.15878 5961 ft 281 kts 132°
2026-05-08 02:21 32.83872 -117.14156 5960 ft 282 kts 132°
2026-05-08 02:22 32.82538 -117.12438 5963 ft 281 kts 132°
2026-05-08 02:22 32.81210 -117.10728 5962 ft 279 kts 132°
2026-05-08 02:22 32.79935 -117.09088 5966 ft 268 kts 132°
2026-05-08 02:22 32.78686 -117.07483 5969 ft 259 kts 131°
2026-05-08 02:23 32.77708 -117.05754 5970 ft 249 kts 107°
2026-05-08 02:23 32.77232 -117.03777 5973 ft 248 kts 102°
2026-05-08 02:23 32.76765 -117.01815 5972 ft 248 kts 104°
2026-05-08 02:23 32.76281 -116.99859 5975 ft 248 kts 104°
2026-05-08 02:24 32.75749 -116.97887 5971 ft 249 kts 114°
2026-05-08 02:24 32.74701 -116.96337 5975 ft 235 kts 146°
2026-05-08 02:24 32.73306 -116.95602 5979 ft 210 kts 167°
2026-05-08 02:24 32.71923 -116.95481 5970 ft 190 kts 194°
2026-05-08 02:25 32.70698 -116.95991 5969 ft 187 kts 215°
2026-05-08 02:25 32.69707 -116.96944 5974 ft 180 kts 236°
2026-05-08 02:25 32.69083 -116.98193 5977 ft 172 kts 255°
2026-05-08 02:25 32.68829 -116.99564 5844 ft 168 kts 271°
2026-05-08 02:26 32.68969 -117.00932 5381 ft 166 kts 289°
2026-05-08 02:26 32.69292 -117.02222 4935 ft 166 kts 289°
2026-05-08 02:26 32.69607 -117.03547 4462 ft 166 kts 289°
2026-05-08 02:26 32.69927 -117.04842 3952 ft 167 kts 289°
2026-05-08 02:27 32.70246 -117.06166 3416 ft 166 kts 289°
2026-05-08 02:27 32.70564 -117.07464 2895 ft 166 kts 289°
2026-05-08 02:27 32.70888 -117.08778 2373 ft 166 kts 287°
2026-05-08 02:27 32.71202 -117.10084 1853 ft 165 kts 286°
2026-05-08 02:28 32.71518 -117.11385 1335 ft 165 kts 286°
2026-05-08 02:28 32.71830 -117.12670 825 ft 164 kts 285°
2026-05-08 02:28 32.72130 -117.13895 740 ft 146 kts 286°
2026-05-08 02:28 32.72423 -117.15058 562 ft 147 kts 286°
2026-05-08 02:29 32.72714 -117.16232 450 ft 151 kts 285°
2026-05-08 02:29 32.72989 -117.17444 158 ft 154 kts 284°
2026-05-08 02:29 32.73260 -117.18587 23 ft 128 kts 284°
2026-05-08 02:29 32.73449 -117.19335 24 ft 60 kts 287°
2026-05-08 02:30 32.73516 -117.19711 21 ft 34 kts 279°
2026-05-08 02:30 32.73491 -117.19956 21 ft 28 kts 273°
2026-05-08 02:30 32.73536 -117.20167 21 ft 25 kts 285°
2026-05-08 02:30 32.73561 -117.20370 21 ft 22 kts 269°
2026-05-08 02:31 32.73508 -117.20520 21 ft 19 kts 234°
2026-05-08 02:31 32.73442 -117.20573 21 ft 10 kts 197°
2026-05-08 02:31 32.73374 -117.20577 20 ft 10 kts 174°
2026-05-08 02:31 32.73322 -117.20541 20 ft 8 kts 131°
2026-05-08 02:32 32.73296 -117.20493 20 ft 5 kts 114°
2026-05-08 02:32 32.73288 -117.20468 21 ft 0 kts 110°